Wausau, WI

9:54 AM CST on December 16, 2017 (GMT -0600)
Wausau Downtown

Weather History for KAUW - August, 2014

Change the Weather History Date:

Thursday, August 21, 2014

  Actual Average Record
Temperature  
Mean Temperature 64 °F 67 °F  
Max Temperature 69 °F 77 °F 99 °F (1955)
Min Temperature 59 °F 57 °F 39 °F (2004)
Degree Days  
Heating Degree Days 1 1  
Month to date heating degree days 11 21  
Since 1 June heating degree days 72 133  
Since 1 July heating degree days 50 44  
Cooling Degree Days 0 3  
Month to date cooling degree days 58 88  
Year to date cooling degree days 277 348  
Since 1 June cooling degree days 252 329  
Growing Degree Days 14 (Base 50)    
Moisture  
Dew Point 63 °F    
Average Humidity 94    
Maximum Humidity 100    
Minimum Humidity 87    
Precipitation  
Precipitation 0.17 in 0.13 in 2.98 in (1924)
Month to date precipitation 3.64 2.87  
Year to date precipitation 23.19 20.92  
Snow  
Snow 0.00 in 0.00 in 0.00 in ()
Month to date snowfall 0.0 0.0  
Since 1 June snowfall 0.0  
Since 1 July snowfall 0.0 0.0  
Snow Depth 0.00 in    
Sea Level Pressure  
Sea Level Pressure 29.93 in    
Wind  
Wind Speed 7 mph (ESE)    
Max Wind Speed 12 mph    
Max Gust Speed -    
Visibility 4 miles    
Events Rain    
T = Trace of Precipitation, MM = Missing Value Source: NWS Daily Summary

Daily Weather History Graph

Daily Weather History Graph

Search for Another Location

Airport or City:

Trip Planner

Search our weather history database for the weather conditions in past years. The results will help you decide how hot, cold, wet, or windy it might be!

Date:

Astronomy

Aug. 21, 2014 Rise Set
Actual Time 6:07 AM CDT 7:54 PM CDT
Civil Twilight 5:36 AM CDT 8:25 PM CDT
Nautical Twilight 4:58 AM CDT 9:03 PM CDT
Astronomical Twilight 4:16 AM CDT 9:45 PM CDT
Moon 2:33 AM CDT (8/21) 5:27 PM CDT (8/21)
Length of Visible Light 14h 49m
Length of Day
13h 47m
Waning Crescent, 13% of the Moon is Illuminated
Aug 21
Waning Crescent
Aug 25
New
Sep 2
First Quarter
Sep 8
Full
Sep 15
Last Quarter

Hourly Weather History & Observations

Time (CDT) Temp. Dew Point Humidity Pressure Visibility Wind Dir Wind Speed Gust Speed Precip Events Conditions
12:54 AM 60.1 °F 59.0 °F 96% 29.96 in 9.0 mi Calm Calm - N/A   Partly Cloudy
1:54 AM 60.1 °F 59.0 °F 96% 29.96 in 9.0 mi ESE 3.5 mph - 0.00 in   Partly Cloudy
2:54 AM 60.1 °F 59.0 °F 96% 29.94 in 10.0 mi ESE 4.6 mph - N/A   Partly Cloudy
3:54 AM 60.1 °F 59.0 °F 96% 29.93 in 9.0 mi East 6.9 mph - N/A   Partly Cloudy
4:54 AM 60.1 °F 59.0 °F 96% 29.93 in 9.0 mi East 6.9 mph - N/A   Overcast
5:54 AM 60.1 °F 59.0 °F 96% 29.93 in 7.0 mi ESE 4.6 mph - N/A   Scattered Clouds
6:20 AM 60.1 °F 60.1 °F 100% 29.93 in 4.0 mi East 5.8 mph - N/A   Overcast
6:46 AM 61.0 °F 60.1 °F 97% 29.93 in 4.0 mi East 8.1 mph - N/A   Mostly Cloudy
6:54 AM 61.0 °F 60.1 °F 97% 29.94 in 3.0 mi ESE 6.9 mph - N/A   Mostly Cloudy
7:08 AM 61.0 °F 61.0 °F 100% 29.94 in 3.0 mi ESE 5.8 mph - N/A   Overcast
7:43 AM 62.1 °F 61.0 °F 96% 29.96 in 5.0 mi ESE 3.5 mph - N/A   Mostly Cloudy
7:54 AM 62.1 °F 61.0 °F 96% 29.96 in 5.0 mi East 5.8 mph - N/A   Mostly Cloudy
8:06 AM 63.0 °F 62.1 °F 97% 29.95 in 4.0 mi East 4.6 mph - N/A   Mostly Cloudy
8:41 AM 64.0 °F 62.1 °F 93% 29.94 in 4.0 mi ESE 5.8 mph - N/A   Overcast
8:54 AM 64.0 °F 62.1 °F 93% 29.94 in 3.0 mi ESE 6.9 mph - N/A   Overcast
9:06 AM 64.0 °F 63.0 °F 96% 29.92 in 2.5 mi East 9.2 mph - N/A   Overcast
9:29 AM 64.0 °F 63.0 °F 96% 29.93 in 3.0 mi ESE 8.1 mph - N/A   Overcast
9:54 AM 64.0 °F 63.0 °F 96% 29.94 in 3.0 mi ESE 8.1 mph - 0.00 in Rain Light Rain
10:50 AM 64.4 °F 62.6 °F 94% 29.96 in 2.5 mi SSE 8.1 mph - 0.05 in Rain Light Rain
10:54 AM 64.0 °F 63.0 °F 96% 29.97 in 2.0 mi SSE 8.1 mph - 0.07 in Rain Light Rain
11:06 AM 64.0 °F 63.0 °F 96% 29.95 in 1.8 mi SSE 8.1 mph - 0.05 in Rain Light Rain
11:10 AM 64.0 °F 63.0 °F 96% 29.95 in 2.0 mi SE 8.1 mph - 0.06 in Rain Light Rain
11:19 AM 64.9 °F 64.0 °F 97% 29.95 in 3.0 mi ESE 8.1 mph - 0.07 in Rain Light Rain
11:34 AM 64.9 °F 64.0 °F 97% 29.94 in 5.0 mi SE 8.1 mph - 0.08 in Rain Light Rain
11:54 AM 64.9 °F 64.0 °F 97% 29.94 in 5.0 mi SE 8.1 mph - 0.09 in Rain Light Rain
12:11 PM 66.0 °F 64.0 °F 93% 29.93 in 5.0 mi SE 8.1 mph - 0.01 in Rain Light Rain
12:54 PM 66.0 °F 64.9 °F 96% 29.92 in 10.0 mi ESE 8.1 mph - 0.01 in   Overcast
1:54 PM 66.9 °F 64.9 °F 93% 29.90 in 7.0 mi ESE 8.1 mph - N/A   Overcast
2:54 PM 68.0 °F 64.9 °F 90% 29.92 in 6.0 mi SE 11.5 mph - N/A   Overcast
3:54 PM 68.0 °F 66.0 °F 93% 29.92 in 6.0 mi ESE 9.2 mph - N/A   Overcast
4:54 PM 69.1 °F 66.0 °F 90% 29.92 in 7.0 mi ESE 8.1 mph - N/A   Overcast
5:38 PM 69.1 °F 66.0 °F 90% 29.92 in 5.0 mi East 8.1 mph - N/A   Overcast
5:54 PM 69.1 °F 66.0 °F 90% 29.91 in 5.0 mi East 9.2 mph - N/A   Overcast
6:12 PM 69.1 °F 66.0 °F 90% 29.90 in 6.0 mi East 9.2 mph - N/A   Overcast
6:30 PM 68.0 °F 66.0 °F 93% 29.91 in 5.0 mi East 10.4 mph - N/A   Overcast
6:54 PM 68.0 °F 66.0 °F 93% 29.91 in 4.0 mi ESE 8.1 mph - N/A   Overcast
7:01 PM 66.9 °F 66.0 °F 97% 29.91 in 4.0 mi ESE 8.1 mph - N/A   Overcast
7:54 PM 66.9 °F 66.0 °F 97% 29.92 in 3.0 mi East 8.1 mph - N/A   Overcast
8:37 PM 66.0 °F 66.0 °F 100% 29.92 in 2.5 mi ESE 8.1 mph - N/A   Overcast
8:49 PM 66.2 °F 64.4 °F 94% 29.93 in 1.2 mi ESE 10.4 mph - N/A   Overcast
8:54 PM 66.0 °F 64.9 °F 96% 29.93 in 1.2 mi ESE 9.2 mph - N/A   Overcast
9:54 PM 64.9 °F 64.9 °F 100% 29.93 in 1.2 mi ESE 9.2 mph - N/A   Overcast
10:15 PM 66.0 °F 64.9 °F 96% 29.93 in 2.0 mi East 8.1 mph - N/A   Overcast
10:23 PM 64.9 °F 64.9 °F 100% 29.94 in 1.8 mi East 5.8 mph - N/A   Overcast
10:35 PM 64.9 °F 64.9 °F 100% 29.94 in 2.0 mi East 5.8 mph - N/A   Overcast
10:54 PM 64.9 °F 64.9 °F 100% 29.94 in 2.0 mi East 8.1 mph - N/A   Overcast
11:54 PM 64.9 °F 64.9 °F 100% 29.94 in 2.5 mi ESE 5.8 mph - N/A   Overcast